Weather History for Minot, ND

Change the Weather History Date:

Sunday, April 13, 2014

  Actual Average Record
Temperature  
Mean Temperature 28 °F 42 °F  
Max Temperature 35 °F 54 °F 85 °F (1908)
Min Temperature 20 °F 31 °F 7 °F (1909)
Degree Days  
Heating Degree Days 37 23  
Month to date heating degree days 362 335  
Since 1 July heating degree days 8878 8050  
Cooling Degree Days 0 0  
Month to date cooling degree days 0 0  
Year to date cooling degree days 0 0  
Moisture  
Dew Point 14 °F    
Average Humidity 58    
Maximum Humidity 77    
Minimum Humidity 38    
Precipitation  
Precipitation T in 0.03 in 1.06 in (1970)
Month to date precipitation 0.11 0.40  
Year to date precipitation 0.52 2.15  
Sea Level Pressure  
Sea Level Pressure 30.26 in    
Wind  
Wind Speed 14 mph (NNW)    
Max Wind Speed 28 mph    
Max Gust Speed 35 mph    
Visibility 9 miles    
Events Snow    
T = Trace of Precipitation, MM = Missing Value Source: NWS Daily Summary

Daily Weather History Graph

Daily Weather History Graph

Search for Another Location

Airport:

Trip Planner

Search our weather history database for the weather conditions in past years. The results will help you decide how hot, cold, wet, or windy it might be!

Date:

Astronomy

Apr. 13, 2014 Rise Set
Actual Time 6:59 AM CDT 8:33 PM CDT
Civil Twilight 6:26 AM CDT 9:05 PM CDT
Nautical Twilight 5:46 AM CDT 9:45 PM CDT
Astronomical Twilight 5:03 AM CDT 10:29 PM CDT
Moon 7:07 PM CDT (4/13) 6:06 AM CDT (4/13)
Length of Visible Light 14h 39m
Length of Day
13h 34m
Waxing Gibbous, 97% of the Moon is Illuminated
Apr 13
Waxing Gibbous
Apr 15
Full
Apr 22
Last Quarter
Apr 29
New
May 6
First Quarter

Hourly Weather History & Observations

Time (CDT) Temp. Windchill Dew Point Humidity Pressure Visibility Wind Dir Wind Speed Gust Speed Precip Events Conditions
12:54 AM 28.0 °F 15.3 °F 19.9 °F 72% 30.11 in 10.0 mi NW 18.4 mph 24.2 mph 0.00 in   Overcast
1:54 AM 26.1 °F 11.0 °F 15.1 °F 63% 30.15 in 9.0 mi NNW 24.2 mph 34.5 mph 0.00 in Snow Light Snow
2:14 AM 24.1 °F 9.8 °F 15.1 °F 69% 30.09 in 9.0 mi NNW 19.6 mph 33.4 mph 0.00 in Snow Light Snow
2:54 AM 21.9 °F 7.8 °F 15.1 °F 75% 30.17 in 9.0 mi NNW 17.3 mph - 0.00 in Snow Light Snow
3:54 AM 21.9 °F 5.1 °F 12.9 °F 68% 30.18 in 9.0 mi NNW 25.3 mph 32.2 mph 0.00 in Snow Light Snow
4:54 AM 21.0 °F 5.7 °F 14.0 °F 74% 30.20 in 9.0 mi NNW 19.6 mph - 0.00 in Snow Light Snow
5:54 AM 19.9 °F 4.8 °F 14.0 °F 78% 30.21 in 10.0 mi NW 18.4 mph 25.3 mph 0.00 in   Clear
6:54 AM 19.4 °F 4.1 °F 12.2 °F 74% 30.15 in 10.0 mi NW 18.4 mph - N/A   Clear
7:44 AM 21.9 °F 9.2 °F 12.9 °F 68% 30.18 in 10.0 mi NNW 13.8 mph 23.0 mph 0.00 in   Mostly Cloudy
7:54 AM 23.0 °F 9.2 °F 12.9 °F 65% 30.26 in 10.0 mi North 17.3 mph 24.2 mph 0.00 in   Overcast
8:54 AM 24.1 °F 11.0 °F 12.9 °F 62% 30.30 in 10.0 mi NNW 16.1 mph - N/A   Overcast
9:54 AM 24.1 °F 11.5 °F 12.9 °F 62% 30.31 in 8.0 mi North 15.0 mph - 0.00 in Snow Light Snow
10:54 AM 24.1 °F 12.0 °F 16.0 °F 71% 30.34 in 2.5 mi NNW 13.8 mph - 0.00 in Snow Light Snow
11:09 AM 25.0 °F 12.6 °F 17.1 °F 72% 30.25 in 3.0 mi NNW 15.0 mph - 0.00 in Snow Light Snow
11:50 AM 26.6 °F 13.8 °F 12.2 °F 55% 30.24 in 10.0 mi NW 17.3 mph 23.0 mph 0.00 in   Overcast
11:54 AM 26.1 °F 13.1 °F 12.9 °F 58% 30.32 in 10.0 mi NW 17.3 mph - 0.00 in   Overcast
12:04 PM 26.1 °F 12.7 °F 12.0 °F 55% 30.24 in 10.0 mi NW 18.4 mph 26.5 mph 0.00 in Snow Light Snow
12:54 PM 28.9 °F 16.9 °F 12.0 °F 49% 30.32 in 10.0 mi NNW 17.3 mph - 0.00 in   Overcast
1:54 PM 30.0 °F 18.3 °F 10.9 °F 45% 30.32 in 10.0 mi NW 17.3 mph 24.2 mph 0.00 in   Overcast
2:54 PM 30.9 °F 18.4 °F 10.0 °F 42% 30.32 in 10.0 mi NNW 20.7 mph 26.5 mph 0.00 in   Overcast
3:54 PM 33.1 °F 23.0 °F 10.9 °F 40% 30.31 in 10.0 mi NNW 15.0 mph 24.2 mph N/A   Overcast
4:54 PM 34.0 °F 23.4 °F 12.0 °F 40% 30.31 in 10.0 mi NW 17.3 mph - N/A   Overcast
5:54 PM 33.1 °F 24.9 °F 12.0 °F 42% 30.31 in 10.0 mi North 10.4 mph - N/A   Overcast
6:54 PM 30.9 °F 22.8 °F 14.0 °F 50% 30.31 in 10.0 mi NNW 9.2 mph - N/A   Overcast
7:54 PM 30.0 °F 21.7 °F 15.1 °F 54% 30.30 in 10.0 mi NNE 9.2 mph - N/A   Mostly Cloudy
8:54 PM 25.0 °F 18.1 °F 16.0 °F 69% 30.32 in 10.0 mi NE 5.8 mph - N/A   Clear
9:54 PM 21.9 °F 15.7 °F 15.1 °F 75% 30.32 in 10.0 mi NNE 4.6 mph - N/A   Clear
10:54 PM 23.0 °F 17.0 °F 16.0 °F 74% 30.32 in 10.0 mi North 4.6 mph - N/A   Overcast
11:54 PM 25.0 °F 19.3 °F 18.0 °F 75% 30.33 in 10.0 mi North 4.6 mph - N/A   Overcast